レモン彗星

C/2016 X1 ( Lemmon )

English version
Home page
Updated on January 23, 2020

---------------------------------------------------------------------

・ プロフィール

発見日 2016年12月8日
発見光度 20.1等
発見者 G. J. Leonard (Mount Lemmon)

・ 写真集

・ 軌道要素

Epoch 2019 Apr. 27.0 TT = JDT 2458600.5
T 2019 Apr. 29.73461 TT                                 Williams
q   7.5642615            (2000.0)            P               Q
z  +0.0005848      Peri.  224.55708     -0.44337243     -0.78477651
 +/-0.0000013      Node   256.42673     +0.89508461     -0.36210963
e   0.9955762      Incl.   26.45594     +0.04737539     -0.50299348
From 219 observations 2016 Nov. 26-2019 Nov. 1, mean residual 0".5.

・ 光度変化

        m1 = -3.8 + 5 logΔ + 20.0 log r

---------------------------------------------------------------------

軌道要素はM.P.E.C. 2019-V116に掲載されたものです。
光度グラフはComet for Windowsで作成したものです。

---------------------------------------------------------------------

Copyright(C) Seiichi Yoshida (comet@aerith.net). All rights reserved.